Gainesville, FL

8:38 AM EST on November 23, 2017 (GMT -0500)
Gainesville Regional

Weather History for KGNV - March, 2013

Change the Weather History Date:

Wednesday, March 20, 2013

  Actual Average Record
Temperature  
Mean Temperature 62 °F 63 °F  
Max Temperature 74 °F 75 °F 89 °F (1921)
Min Temperature 49 °F 51 °F 36 °F (1923)
Degree Days  
Heating Degree Days 3 4  
Month to date heating degree days 183 103  
Since 1 July heating degree days 915 1137  
Cooling Degree Days 0 2  
Month to date cooling degree days 8 34  
Year to date cooling degree days 108 66  
Growing Degree Days 12 (Base 50)    
Moisture  
Dew Point 54 °F    
Average Humidity 70    
Maximum Humidity 93    
Minimum Humidity 46    
Precipitation  
Precipitation 0.11 in 0.14 in 2.03 in (1951)
Month to date precipitation 0.57 2.93  
Year to date precipitation 2.54 9.44  
Snow  
Snow 0.00 in 0.00 in 0.00 in ()
Month to date snowfall 0.0 0.0  
Since 1 July snowfall 0.0 0.0  
Snow Depth 0.00 in    
Sea Level Pressure  
Sea Level Pressure 29.93 in    
Wind  
Wind Speed 5 mph (North)    
Max Wind Speed 22 mph    
Max Gust Speed 26 mph    
Visibility 7 miles    
Events Fog , Rain    
T = Trace of Precipitation, MM = Missing Value Source: NWS Daily Summary

Daily Weather History Graph

Daily Weather History Graph

Search for Another Location

Airport or City:

Trip Planner

Search our weather history database for the weather conditions in past years. The results will help you decide how hot, cold, wet, or windy it might be!

Date:

Astronomy

Mar. 20, 2013 Rise Set
Actual Time 7:32 AM EDT 7:40 PM EDT
Civil Twilight 7:08 AM EDT 8:04 PM EDT
Nautical Twilight 6:41 AM EDT 8:32 PM EDT
Astronomical Twilight 6:13 AM EDT 9:00 PM EDT
Moon 1:38 PM EDT (3/20) 2:47 AM EDT (3/20)
Length of Visible Light 12h 55m
Length of Day
12h 08m
First Quarter, 59% of the Moon is Illuminated
Mar 20
First Quarter
Mar 27
Full
Apr 3
Last Quarter
Apr 10
New
Apr 18
First Quarter

Hourly Weather History & Observations

Time (EDT) Temp. Dew Point Humidity Pressure Visibility Wind Dir Wind Speed Gust Speed Precip Events Conditions
12:53 AM 63.0 °F 59.0 °F 87% 29.99 in 10.0 mi ESE 3.5 mph - N/A   Mostly Cloudy
1:53 AM 63.0 °F 59.0 °F 87% 29.99 in 10.0 mi Calm Calm - N/A   Overcast
2:53 AM 61.0 °F 57.9 °F 90% 29.98 in 10.0 mi Calm Calm - N/A   Overcast
3:53 AM 60.1 °F 57.9 °F 93% 29.96 in 10.0 mi Calm Calm - N/A   Mostly Cloudy
4:53 AM 60.1 °F 57.0 °F 90% 29.96 in 10.0 mi Calm Calm - N/A   Scattered Clouds
5:53 AM 62.1 °F 59.0 °F 90% 29.95 in 10.0 mi North 6.9 mph - N/A   Scattered Clouds
6:53 AM 59.0 °F 55.0 °F 87% 29.96 in 10.0 mi ENE 5.8 mph - N/A   Clear
7:53 AM 59.0 °F 52.0 °F 78% 29.97 in 10.0 mi NE 3.5 mph - N/A   Clear
8:53 AM 61.0 °F 48.9 °F 64% 29.99 in 10.0 mi North 3.5 mph - N/A   Clear
9:53 AM 63.0 °F 48.9 °F 60% 30.00 in 10.0 mi NE 6.9 mph - N/A   Mostly Cloudy
11:53 AM 71.1 °F 51.1 °F 49% 29.99 in 10.0 mi NNE 8.1 mph - N/A   Clear
12:53 PM 70.0 °F 50.0 °F 49% 29.96 in 10.0 mi NNE 11.5 mph - N/A   Mostly Cloudy
1:53 PM 70.0 °F 50.0 °F 49% 29.94 in 10.0 mi North 9.2 mph - N/A   Overcast
2:53 PM 73.9 °F 52.0 °F 46% 29.89 in 10.0 mi NE 9.2 mph - N/A   Scattered Clouds
3:53 PM 71.1 °F 52.0 °F 51% 29.87 in 10.0 mi ENE 4.6 mph - N/A   Overcast
4:53 PM 70.0 °F 52.0 °F 53% 29.86 in 10.0 mi NNE 6.9 mph - N/A   Overcast
5:53 PM 63.0 °F 55.9 °F 78% 29.90 in 8.0 mi NNW 16.1 mph 26.5 mph 0.00 in Rain Light Rain
6:53 PM 59.0 °F 55.9 °F 90% 29.90 in 8.0 mi North 9.2 mph - 0.10 in Rain Light Rain
7:53 PM 57.9 °F 55.0 °F 90% 29.88 in 10.0 mi SSE 5.8 mph - 0.01 in   Scattered Clouds
8:53 PM 57.9 °F 55.9 °F 93% 29.89 in 10.0 mi Calm Calm - N/A   Mostly Cloudy
9:53 PM 55.9 °F 54.0 °F 93% 29.90 in 2.0 mi Calm Calm - N/A   Partly Cloudy
9:56 PM 55.4 °F 53.6 °F 94% 29.90 in 1.0 mi Calm Calm - N/A   Mist
10:03 PM 53.6 °F 53.6 °F 100% 29.90 in 0.5 mi Calm Calm - N/A Fog Fog
10:17 PM 53.6 °F 51.8 °F 94% 29.91 in 1.2 mi NW 3.5 mph - N/A   Scattered Clouds
10:22 PM 53.6 °F 53.6 °F 100% 29.91 in 3.0 mi NW 3.5 mph - N/A   Scattered Clouds
10:31 PM 53.6 °F 53.6 °F 100% 29.91 in 1.2 mi NW 4.6 mph - N/A   Scattered Clouds
10:33 PM 53.6 °F 53.6 °F 100% 29.91 in 0.8 mi WNW 4.6 mph - N/A   Mist
10:43 PM 53.6 °F 51.8 °F 94% 29.91 in 0.2 mi WNW 3.5 mph - N/A Fog Fog
10:53 PM 53.1 °F 52.0 °F 96% 29.91 in 0.2 mi West 3.5 mph - N/A Fog Fog
11:31 PM 53.6 °F 51.8 °F 94% 29.91 in 0.8 mi Calm Calm - N/A   Mist
11:38 PM 51.8 °F 51.8 °F 100% 29.91 in 1.5 mi Calm Calm - N/A   Scattered Clouds
11:53 PM 50.0 °F 48.9 °F 96% 29.91 in 2.0 mi WNW 3.5 mph - N/A   Partly Cloudy